Location: Chippewa Lake
(41.0698°N, 81.9010°W)
Time: 21:57:04
(UTC+00:00)

Cosmos 1500 - Pass Details

Date: 09 May 2021
Orbit: 497 x 519 km, 82.5° (Epoch: 16 June)

Event Time Altitude Azimuth Distance (km) Brightness Sun altitude
Rises 03:00:57 0° 349° (N) 2,611 7.8 -22.8°
Reaches altitude 10° 03:03:06 10° 348° (NNW) 1,718 6.7 -23.0°
Enters shadow 03:06:34 67° 298° (WNW) 548 3.4 -23.4°
